Погода Реболы

Погода Реболы : погода сейчас, прогноз погоды и архив. Всё, что Вы хотите узнать о погоде Реболы!

Поиск расширенной информации на нашем сайте:

Другие новости

Новости СМИ2

Главная страница сайта

Новости сайта

03.07.2017

Напоминаем, что на нашем специализированном сайте Метеоцентр.Азия вы можете получить высокодетализированные автоматические прогнозы погоды по пунктам России, СНГ и мира в авиационном формате (включающие направление и скорость ветра, видимость, явления погоды, количество и форму облачности, нижнюю и верхнюю границу облачности).

Рекомендуем: помещения в аренду тут снять офис у метро Баррикадная на выгодных условиях

Погода Реболы - сегодня

Время (UTC), дата Ветер
(°,м/с) 
Видим.   Явления Облачность Т
(°С)
Тd
(°С)
f(%) Тe
(°С)
Pmin
(гПа)
dP
(гПа)
Po
(мм)
O2
(г/м3)
Тmin Tmax R s Состояние
почвы
18 12.12.17 140 (ЮВ) 6-11{12}  7000 м  слаб. снег  10/10 240 м 
[Frnb|Ns]
-0.2 -1.2 93 -4  989.5  -6.2  725  293    -0.2     
21 12.12.17 140 (ЮВ) 5{11}  8000 м  слаб. снег  10/10 210 м 
[Frnb|Ns]
-0.5 -1.4 94 -4  985.6  -3.8  723  292           
00 13.12.17 160 (Ю) 4{13}  7000 м  слаб. снег  10/10 240 м 
[Frnb|Ns]
-0.3 -1.3 93 -3  982.3  -3.2  720  291           
03 13.12.17 170 (Ю) 9000 м  слаб. снег  10/10 210 м 
[Frnb|Ns]
+0.2 -0.6 94 -2  980.1  -2.1  719  289  -0.7    10     
06 13.12.17 230 (ЮЗ) 8000 м  слаб. снег  10/10 240 м 
[Frnb|Ns]
+0.2 -1.1 91 -2  980.2  -0.1  719  289  -0.5    47  равномерный
мокрый или
старый снег
100% 
09 13.12.17 240 (ЮЗ) 5{11}  9000 м  слаб. снег  10/10 270 м 
[Frnb|Ns]
-2.1 -4 87 -5  983.4  721  293           
12 13.12.17 250 (З) 5{12}  8000 м  слаб. снег  10/10 240 м 
[Frnb|Ns]
-2.8 -4.7 87 -6  986.3  2.7  723  295           
15 13.12.17 240 (ЮЗ) 5-13{15}  23000 м  позёмок{снег}  10/10 360 м 
[Sc]
-4 -6.8 81 -8  990.1  3.6  726  297         
18 13.12.17 220 (ЮЗ) 5{13}  8000 м  слаб. снег  10/10 270 м 
[Frnb|Ns]
-3.1 -4.9 87 -7  991.3  1.2  727  297    +0.2  0.7     
21 13.12.17 230 (ЮЗ) 5{13}  21000 м  позёмок{снег}  10/10 300 м 
[Frnb|Ns]
-3.4 -5.9 83 -7  992.6  1.2  728  297           
00 14.12.17 230 (ЮЗ) 5-10{10}  20000 м  позёмок{снег}  10/10 300 м 
[Frnb|Ns]
-1.6 -3.9 84 -5  993.4  728  296           
03 14.12.17 220 (ЮЗ) 5-11{11}  8000 м  слаб. снег  10/10 270 м 
[Frnb|Ns]
-0.3 -1.8 90 -3  994.2  0.9  729  294  -4.1    0.9     
06 14.12.17 220 (ЮЗ) 5-11{11}  22000 м  позёмок{снег}  10/10 300 м 
[Frnb|Ns]
+0.3 -1.4 88 -3  996.4  2.2  731  294  -3.4    0.8  48  равномерный
мокрый или
старый снег
100% 
09 14.12.17 210 (ЮЗ) 4{11}  24000 м    10/10 360 м 
[Sc]
+0.6 -1.2 88 -2  998.8  2.4  732  295           
12 14.12.17 200 (Ю) 5{10}  23000 м  {снег}  10/10 330 м 
[Sc]
+0.2 -2.1 85 -3  1000.2  1.4  733  295           
15 14.12.17 190 (Ю) 25000 м    8/8 420 м 
[Sc]
-1.7 -4.1 84 -4  1001.3  0.9  734  298      0.2     
18 14.12.17 180 (Ю) 26000 м    8/8 420 м 
[Sc]
-2.8 -5.1 84 -6  1002.3  0.9  735  300    +0.7  0.0     
21 14.12.17 170 (Ю) 22000 м    10/10 360 м 
[Sc]
-2.3 -4.5 85 -3  1002.2  0.1  735  299           
00 15.12.17 150 (ЮВ) 23000 м    10/10 330 м 
[Sc]
-3 -5.4 83 -5  1002.2  0.1  735  300           
03 15.12.17 150 (ЮВ) 22000 м    10/10 330 м 
[Sc]
-4 -6.3 84 -7  1001.7  -0.5  734  301  -4         
06 15.12.17 120 (ЮВ) 21000 м    10/10 330 м 
[Sc]
-4.4 -6.4 86 -7  1001.1  -0.7  734  301  -4.4      48  равномерный
сухой снег
100% 
09 15.12.17 120 (ЮВ) 23000 м    10/10 400 м 
[Sc]
-4.2 -6.1 87 -6  1000.1  -0.9  733  301           
12 15.12.17 120 (ЮВ) 24000 м    10/10 420 м 
[Sc]
-3.1 -4.6 89 -5  998.3  -1.6  732  299           
15 15.12.17 110 (В) 9000 м  слаб. снег  10/10 270 м 
[Frnb|Ns]
-3.3 -4.4 92 -4  997.3  -1  731  299      0.5     
18 15.12.17 110 (В) 8000 м  слаб. снег  10/10 270 м 
[Frnb|Ns]
-3.5 -4.6 92 -5  996.5  -0.9  730  299    -3     
Время (UTC), дата Ветер
(°,м/с) 
Видим.   Явления Облачность Т
(°С)
Тd
(°С)
f(%) Тe
(°С)
Pmin
(гПа)
dP
(гПа)
Po
(мм)
O2
(г/м3)
Тmin Tmax R s Состояние
почвы

Для получения пояснительной информации подведите курсор к названию столбца.

ПОГОДА Реболы - архив

Всё, что Вы хотите узнать о погоде Реболы - удобно и подробно!

Выберите нужную дату (начиная с 1 января 2015* года) и нажмите кнопку "Найти".
Будут отображены архивные сводки погоды по пункту Реболы, начиная с указанной даты.


Отображать данные в формате CSV (для использования в таблицах Excel)


Внимание! Наш архив погоды предназначен исключительно для личного некоммерческого использования в познавательных целях. Если Вам необходимы официальные справки о состоянии погоды (для производственных, юридических, коммерческих и т.п. целей), обращайтесь в органы Росгидромета.

*Примечание: данная дата относится к архиву по метеостанциям СССР (Россия, СНГ, Балтия).
Архив по метеостанциям Зарубежной Европы и Азии (кроме Китая) хранится 10 дней, по другим регионам земного шара (Китай, Африка, Америка, Австралия, Океания) - 1 день.

Реболы - район местоположения метеостанции


Название, широта, долгота, высота метеостанции:
Реболы 63.8°ш. 30.8°д. 182 м над ур. моря [Российская Федерация]

Дополнительная информация

В oтличие oт бoльшинства пoгoдных сайтoв мы публикуем пoдрoбную метеoинфoрмацию в детальнoм прoфессиoнальнoм фoрмате.

Характеристики температуры и влажнoсти вoздуха измеряются на высoте 2 м в тени вдали oт зданий и деревьев.
Скoрoсть ветра измеряется на высoте 10 м (на урoвне рoста челoвека скoрoсть ветра ниже в 1.5-2 раза). Если метеoстанция нахoдится в гoрoде или в лесу, тo скoрoсть ветра занижена на 2-4 м/с пo сравнению с oткрытым местoм. Скoрoсть ветра над акватoриями крупных рек и oзёр, а также на вершинах хoлмoв на 2-5 м/с выше, чем в oбычных услoвиях.
Атмoсфернoе давление в разных тoчках местнoсти мoжет значительнo oтличаться oт давления на метеoстанции, в зависимoсти oт услoвий рельефа (при пoдъёме на 10 м давление пoнижается примернo на 1 мм рт.ст.).